Weather observations for the past three days for
Noorvik
Imperial (Metric)
Date Time (akdt) Wind (mph) Vis. (mi.) Weather Sky Cond. Temperature (ºF) Relative Humidity Wind Chill (°F) Heat Index (°F) Pressure Precipitation (in)
Air Dwpt 6 hour altimeter (in) sea level (mb) 1 hr 3 hr 6 hr
Max. Min.
15 15:56 S 13 9.00 Mostly Cloudy FEW046 BKN055 59 42.1 59 55 54% 29.67 1012.5
15 14:56 S 12 10.00 Mostly Cloudy SCT042 BKN050 BKN060 57.9 42.1 56% 29.66 1012.5
15 13:56 S 9 9.00 Mostly Cloudy BKN037 BKN075 57.9 43 58% 29.65 1012.2
15 12:56 SE 15 10.00 Overcast FEW038 OVC055 55.9 43 62% 29.65 1012.1
15 11:56 S 5 10.00 Overcast FEW035 OVC060 57 43 60% 29.64 1011.8
15 10:56 S 7 9.00 Overcast FEW029 OVC055 57 45 64% 29.64 1011.6
15 09:56 Calm 10.00 Mostly Cloudy BKN048 55 46 55 48 72% 29.63 1011.4 0.01
15 08:56 SW 5 10.00 Overcast OVC055 53.1 46.9 80% 29.63 1011.2
15 07:56 S 5 10.00 Overcast OVC055 51.1 46.9 86% 29.62 1010.9
15 06:56 S 7 10.00 Overcast OVC060 48.9 46.9 93% 46 29.6 1010.5 0.01 0.01
15 05:56 S 6 10.00 Partly Cloudy SCT060 48 46 93% 46 29.59 1010.0
15 04:56 SE 5 10.00 Mostly Cloudy BKN060 50 48 93% 49 29.58 1009.7
15 03:56 Calm 10.00 A Few Clouds FEW055 52 46 60.1 51.1 80% 29.57 1009.4
15 02:56 W 3 10.00 Overcast BKN046 OVC060 52 46 80% 29.57 1009.2
15 01:56 S 7 10.00 Mostly Cloudy BKN048 52 46 80% 29.56 1008.9
15 00:56 SW 8 10.00 Mostly Cloudy BKN043 54 46 75% 29.54 1008.3
14 23:56 SW 10 10.00 A Few Clouds FEW047 55 45 69% 29.52 1007.6
14 22:56 SW 9 10.00 Mostly Cloudy BKN045 BKN065 57 46 67% 29.5 1006.9
14 21:56 SW 8 10.00 Overcast OVC043 60.1 48 63 57 65% 29.48 1006.2
14 20:56 W 7 9.00 Overcast BKN040 OVC060 57.9 48.9 72% 29.46 1005.7
14 19:56 W 9 10.00 Overcast BKN042 BKN049 OVC060 59 50 72% 29.45 1005.0
14 18:56 SW 10 9.00 Overcast OVC060 61 52 72% 29.43 1004.5
14 17:56 W 9 8.00 Partly Cloudy FEW026 SCT050 62.1 52 70% 29.42 1004.2
14 16:56 S 12 10.00 NULL NULL 63 51.1 65% 29.41 1003.7
14 15:56 SE 13 10.00 Overcast FEW030 SCT048 OVC060 63 51.1 63 54 65% 29.39 1003.2 0.03
14 14:56 S 12 9.00 Overcast FEW019 BKN048 OVC060 61 53.1 75% 29.38 1002.8
14 13:56 SE 8 10.00 Overcast SCT012 BKN017 OVC034 59 55 87% 29.37 1002.6
14 12:56 E 8 5.00 Light Rain Fog/Mist BKN008 BKN015 OVC019 55.9 55 97% 29.37 1002.3 0.01 0.03
14 11:56 E 10 4.00 Light Rain Fog/Mist OVC015 55 54 96% 29.36 1002.2
14 10:56 NE 10 10.00 Light Rain BKN022 OVC041 55 54 96% 29.36 1002.0 0.02
14 09:56 NE 8 10.00 Overcast BKN031 OVC060 54 53.1 54 52 97% 29.36 1001.9 0.01 0.08
14 08:56 E 8 10.00 Light Rain SCT027 BKN035 OVC070 53.1 52 96% 29.36 1002.0 0.01
14 07:56 NE 8 10.00 Light Rain FEW041 BKN055 OVC065 53.1 52 96% 29.36 1002.2 0.02
14 06:56 N 6 5.00 Rain Fog/Mist SCT049 OVC065 53.1 51.1 93% 29.37 1002.6 0.03 0.04
14 05:56 N 7 10.00 Light Rain FEW039 OVC065 53.1 50 89% 29.39 1003.0 0.01
14 04:56 N 9 10.00 Light Rain FEW040 BKN080 OVC090 54 51.1 90% 29.41 1003.6
14 03:56 N 5 10.00 Light Rain OVC065 54 52 60.1 54 93% 29.43 1004.4 0.01 0.02
14 02:56 N 6 10.00 Light Rain SCT055 OVC070 55 52 90% 29.44 1004.9 0.01
14 01:56 N 5 10.00 Light Rain FEW055 OVC070 55.9 51.1 84% 29.46 1005.4
14 00:56 NE 5 10.00 Mostly Cloudy BKN075 BKN085 57 51.1 81% 29.47 1005.7
13 23:56 N 5 10.00 Fair CLR 59 52 78% 29.48 1006.1
13 22:56 NW 5 10.00 Fair CLR 59 51.1 75% 29.49 1006.6
13 21:56 NW 7 10.00 A Few Clouds FEW050 60.1 51.1 63 60.1 72% 29.5 1007.0
13 20:56 SE 7 10.00 Mostly Cloudy SCT055 BKN070 62.1 46 56% 29.51 1007.3
13 19:56 N 5 9.00 A Few Clouds FEW050 62.1 46.9 58% 29.5 1007.0
13 18:56 Calm 8.00 Mostly Cloudy SCT043 BKN050 62.1 46 56% 29.52 1007.5
13 17:56 Vrbl 5 9.00 A Few Clouds FEW080 61 46.9 60% 29.53 1007.9
13 16:56 S 6 9.00 NULL NULL 60.1 46 60% 29.54 1008.2
13 15:56 S 9 9.00 Overcast SCT034 BKN050 OVC070 60.1 46.9 61 55.9 62% 29.55 1008.5
13 14:56 S 15 G 21 9.00 Overcast BKN036 OVC070 60.1 46.9 62% 29.54 1008.4
13 13:56 S 16 10.00 Mostly Cloudy SCT035 BKN065 61 46 58% 29.54 1008.1
13 12:56 S 17 10.00 Overcast OVC037 60.1 48 65% 29.53 1008.0
13 11:56 SE 18 10.00 Mostly Cloudy FEW023 SCT044 BKN065 57.9 50 75% 29.53 1007.8
13 10:56 SE 23 G 29 10.00 Overcast and Breezy FEW017 OVC070 57 50 78% 29.53 1007.7
13 09:56 SE 20 G 25 10.00 Mostly Cloudy FEW013 BKN070 BKN085 55.9 52 55.9 53.1 87% 29.51 1007.3
13 08:56 SE 20 G 26 10.00 NULL NULL 55 52 90% 29.51 1007.3
13 07:56 SE 22 10.00 Breezy NULL 54 51.1 90% 29.5 1007.0
13 06:56 E 20 G 24 10.00 Overcast FEW032 OVC049 54 51.1 90% 29.5 1007.0
13 05:56 E 18 10.00 Overcast SCT032 BKN047 OVC060 53.1 50 89% 29.51 1007.1
13 04:56 E 20 10.00 Overcast OVC075 53.1 51.1 93% 29.51 1007.1
13 03:56 E 16 10.00 Overcast FEW029 BKN044 OVC110 54 51.1 55.9 53.1 90% 29.51 1007.2 0.01 0.08
13 02:56 E 13 10.00 Light Rain BKN030 OVC060 53.1 52 96% 29.52 1007.6 0.01
13 01:56 E 10 10.00 Light Rain FEW046 OVC065 55 52 90% 29.52 1007.7
13 00:56 E 17 10.00 Light Rain FEW017 SCT032 OVC070 55.9 53.1 90% 29.52 1007.7 0.01 0.06
12 22:56 NE 9 6.00 Rain Fog/Mist NULL 55 54 96% 29.54 1008.3 0.03
12 21:56 NE 6 10.00 Light Rain NULL 55 55 69.1 55 100% 29.55 1008.8 0.02 0.11
12 20:56 NE 3 9.00 Overcast FEW047 BKN055 OVC070 55.9 55 97% 29.57 1009.3 0.03
12 19:56 S 12 7.00 Light Rain NULL 55.9 54 93% 29.59 1009.9 0.06
12 18:56 E 12 8.00 Overcast FEW050 BKN075 OVC085 66.9 50 55% 29.57 1009.1
12 17:56 NE 12 10.00 Mostly Cloudy BKN095 68 52 57% 29.59 1010.0
12 16:56 SE 9 10.00 NULL NULL 68 48.9 51% 29.62 1011.0
Date Time (akdt) Wind (mph) Vis. (mi.) Weather Sky Cond. Air Dwpt Max. Min. Relative Humidity Wind Chill (°F) Heat Index (°F) altimeter (in) sea level (mb) 1 hr 3 hr 6 hr
6 hour
Temperature (ºF) Pressure Precipitation (in)